Starlink 30492

operational
NORAD ID: 57921 Int'l Des: 2023-147 Owner: SPXS Country: US Constellation: starlink
LEOCIRCULAR

About Starlink 30492

Description loading...

Live Position

Loading 3D Globe...

Upcoming Passes

Altitude History

Altitude vs Time

uPlot chart will show altitude changes over time

Two-Line Element Set

1 57921U 23147J 25354.16132427 .00000364 00000-0 42012-4 0 9992
2 57921 43.0045 38.2889 0001468 269.9772 90.0902 15.02533127124625
Epoch: Dec 20, 2025 • Age: 10 hours

Current Status

Altitude 562.4 km
Velocity 7.59 km/s
Sub-Earth Point 39.64°N, 162.48°E
Launch Date Sep 24, 2023
Age 2.2 years
Type internet

Technical Details

Classification Payload
Mass 730.00 kg
Dry Mass 700.00 kg
Total Mass 730.00 kg
Length 0.30 m
Diameter 4.10 m
Span 29.00 m
Shape Box + pan
Manufacturer SPXS
Bus Type Starlink V2M
Phase Status In Orbit
Owner/State SPXS/US

Large Constellations

Loading constellations...